This is the latest recevied weather packets stored in our database for station/object K1JO. If no packets are shown the sender has not sent any weather packets the latest 10 day(s).
| Time | Temp. | Humidity | Pressure | Rain* | Wind** | Luminosity | Snow |
|---|---|---|---|---|---|---|---|
| 1778150030 | 7.78° C | 98% | 1001.6 hPa | 0 mm | - | 43 W/m² | - |
| 1778149726 | 7.22° C | 99% | 1001.7 hPa | 0 mm | - | 54 W/m² | - |
| 1778149422 | 7.22° C | 99% | 1001.4 hPa | 0 mm | - | 42 W/m² | - |
| 1778149119 | 6.67° C | 99% | 1001.4 hPa | 0 mm | - | 41 W/m² | - |
| 1778148813 | 6.11° C | 99% | 1001.4 hPa | 0 mm | - | 32 W/m² | - |
| 1778148511 | 6.67° C | 99% | 1001.2 hPa | 0 mm | - | 28 W/m² | - |
| 1778148209 | 6.67° C | 99% | 1001.5 hPa | 0 mm | - | 25 W/m² | - |
| 1778147907 | 6.11° C | 99% | 1001.6 hPa | 0 mm | - | 27 W/m² | - |
| 1778147603 | 6.11° C | 99% | 1001.7 hPa | 0 mm | - | 24 W/m² | - |
| 1778147300 | 6.11° C | 99% | 1001.5 hPa | 0 mm | - | 23 W/m² | - |
| 1778146693 | 6.11° C | 99% | 1001.6 hPa | 0 mm | - | 11 W/m² | - |
| 1778146090 | 6.67° C | 99% | 1001.7 hPa | 0 mm | - | 5 W/m² | - |
| 1778145785 | 6.67° C | 99% | 1001.8 hPa | 0 mm | - | 2 W/m² | - |
| 1778145482 | 6.11° C | 99% | 1001.5 hPa | 0 mm | - | 2 W/m² | - |
| 1778145179 | 6.67° C | 99% | 1001.1 hPa | 0 mm | - | 2 W/m² | - |
| 1778144879 | 6.67° C | 99% | 1001 hPa | 0 mm | - | 1 W/m² | - |
| 1778144576 | 6.67° C | 99% | 1001 hPa | 0 mm | - | 0 W/m² | - |
| 1778144273 | 6.67° C | 99% | 1001.1 hPa | 0 mm | - | 0 W/m² | - |
| 1778143970 | 6.67° C | 99% | 1001.1 hPa | 0 mm | - | 0 W/m² | - |
| 1778143667 | 7.22° C | 98% | 1000.8 hPa | 0 mm | - | 0 W/m² | - |
| 1778143363 | 7.22° C | 99% | 1001.1 hPa | 0 mm | - | 0 W/m² | - |
| 1778143061 | 7.22° C | 99% | 1001.4 hPa | 0 mm | - | 0 W/m² | - |
| 1778142757 | 7.22° C | 98% | 1000.8 hPa | 0 mm | - | 0 W/m² | - |
| 1778142453 | 7.22° C | 99% | 1000.9 hPa | 0 mm | - | 0 W/m² | - |
| 1778142149 | 7.22° C | 99% | 1001 hPa | 0 mm | - | 0 W/m² | - |
* Rain latest hour (hover to see other rain measurements)
** Current wind speed in m/s (hover to see current wind gust speed)